Weather History for San Antonio Stinson, TX

Change the Weather History Date:

Saturday, March 2, 2013

  Actual Average Record
Temperature  
Mean Temperature 54 °F -  
Max Temperature 68 °F 65 °F 91 °F (1999)
Min Temperature 41 °F 47 °F 33 °F (2014)
Degree Days  
Heating Degree Days 10    
Growing Degree Days 4 (Base 50)    
Moisture  
Dew Point 27 °F    
Average Humidity 38    
Maximum Humidity 55    
Minimum Humidity 21    
Precipitation  
Precipitation 0.00 in - - ()
Sea Level Pressure  
Sea Level Pressure 30.32 in    
Wind  
Wind Speed 5 mph (North)    
Max Wind Speed 17 mph    
Max Gust Speed 25 mph    
Visibility 10 miles    
Events      
Averages and records for this station are not official NWS values.
T = Trace of Precipitation, MM = Missing Value Source: NWS Daily Summary

Daily Weather History Graph

Daily Weather History Graph

Search for Another Location

Airport:

Trip Planner

Search our weather history database for the weather conditions in past years. The results will help you decide how hot, cold, wet, or windy it might be!

Date:

Astronomy

Mar. 02, 2013 Rise Set
Actual Time 6:57 AM CST 6:34 PM CST
Civil Twilight 6:34 AM CST 6:58 PM CST
Nautical Twilight 6:06 AM CST 7:25 PM CST
Astronomical Twilight 5:39 AM CST 7:53 PM CST
Moon 11:46 PM CST (3/2) 9:54 AM CST (3/2)
Length of Visible Light 12h 23m
Length of Day
11h 36m
Waning Gibbous, 74% of the Moon is Illuminated
Mar 2
Waning Gibbous
Mar 4
Last Quarter
Mar 11
New
Mar 19
First Quarter
Mar 27
Full

Hourly Weather History & Observations

Time (CST) Temp. Windchill Dew Point Humidity Pressure Visibility Wind Dir Wind Speed Gust Speed Precip Events Conditions
12:53 AM 48.9 °F - 24.1 °F 38% 30.30 in 10.0 mi Calm Calm - N/A   Clear
1:53 AM 41.0 °F - 26.1 °F 55% 30.30 in 10.0 mi Calm Calm - N/A   Clear
2:53 AM 41.0 °F 39.0 °F 25.0 °F 53% 30.31 in 10.0 mi NNE 3.5 mph - N/A   Clear
3:53 AM 45.0 °F - 27.0 °F 49% 30.31 in 10.0 mi Calm Calm - N/A   Clear
4:53 AM 46.0 °F 43.9 °F 26.1 °F 46% 30.32 in 10.0 mi NNW 4.6 mph - N/A   Clear
5:53 AM 45.0 °F 42.6 °F 25.0 °F 46% 30.35 in 10.0 mi NNW 4.6 mph - N/A   Clear
6:53 AM 44.1 °F 41.5 °F 24.1 °F 45% 30.38 in 10.0 mi NNW 4.6 mph - N/A   Clear
7:53 AM 46.9 °F - 25.0 °F 42% 30.40 in 10.0 mi North 8.1 mph - N/A   Clear
8:53 AM 50.0 °F - 27.0 °F 41% 30.42 in 10.0 mi NNE 10.4 mph 17.3 mph N/A   Clear
9:53 AM 54.0 °F - 27.0 °F 35% 30.42 in 10.0 mi North 9.2 mph - N/A   Clear
10:53 AM 55.0 °F - 27.0 °F 34% 30.43 in 10.0 mi NNW 9.2 mph - N/A   Clear
11:53 AM 59.0 °F - 26.1 °F 28% 30.40 in 10.0 mi North 12.7 mph 18.4 mph N/A   Clear
12:53 PM 62.1 °F - 26.1 °F 25% 30.36 in 10.0 mi North 17.3 mph 25.3 mph N/A   Clear
1:53 PM 64.9 °F - 27.0 °F 24% 30.32 in 10.0 mi North 13.8 mph - N/A   Clear
2:53 PM 66.9 °F - 27.0 °F 22% 30.29 in 10.0 mi North 9.2 mph - N/A   Clear
3:53 PM 68.0 °F - 27.0 °F 21% 30.26 in 10.0 mi NNW 12.7 mph 19.6 mph N/A   Clear
4:53 PM 66.9 °F - 27.0 °F 22% 30.25 in 10.0 mi North 9.2 mph - N/A   Clear
5:53 PM 66.0 °F - 27.0 °F 23% 30.25 in 10.0 mi Variable 6.9 mph - N/A   Clear
7:53 PM 57.0 °F - 28.9 °F 34% 30.26 in 10.0 mi East 4.6 mph - N/A   Clear
8:53 PM 50.0 °F - 28.9 °F 44% 30.27 in 10.0 mi ESE 3.5 mph - N/A   Clear
9:53 PM 51.1 °F - 28.0 °F 41% 30.29 in 10.0 mi Calm Calm - N/A   Clear
10:53 PM 48.0 °F - 30.0 °F 50% 30.29 in 10.0 mi Calm Calm - N/A   Clear
11:53 PM 45.0 °F - 28.9 °F 53% 30.27 in 10.0 mi Calm Calm - N/A   Clear